• In Hungary
  • List of Countries
  • For 7 days
  • Water Temperature
  • Satellite Maps
  • Weather Map
  • News
  • Weather Widgets
  • user-avatar
    Login

    Hourly Weather Kiustendil

    Today, 22 October, Sunday

    Time Temperature Precipitation Wind Pressure Humidity
    00:00 +6°C° 0 mm 1 mps 625 mmHg 53%
    01:00 +6°C° 0 mm 1 mps 625 mmHg 54%
    02:00 +6°C° 0 mm 1 mps 624 mmHg 55%
    03:00 +5°C° 0 mm 1 mps 624 mmHg 57%
    04:00 +5°C° 0 mm 1 mps 624 mmHg 58%
    05:00 +6°C° 0 mm 1 mps 624 mmHg 58%
    06:00 +6°C° 0 mm 1 mps 624 mmHg 58%
    07:00 +7°C° 0 mm 1 mps 625 mmHg 58%
    08:00 +9°C° 0 mm 1 mps 625 mmHg 51%
    09:00 +11°C° 0 mm 1 mps 626 mmHg 45%
    10:00 +14°C° 0 mm 1 mps 627 mmHg 39%
    11:00 +14°C° 0 mm 1 mps 627 mmHg 37%
    12:00 +15°C° 0 mm 1 mps 627 mmHg 34%
    13:00 +16°C° 0 mm 1 mps 627 mmHg 32%
    14:00 +15°C° 0 mm 1 mps 626 mmHg 35%
    15:00 +14°C° 0 mm 1 mps 625 mmHg 38%
    16:00 +13°C° 0 mm 1 mps 624 mmHg 41%
    17:00 +11°C° 0 mm 1 mps 624 mmHg 44%
    18:00 +10°C° 0 mm 1 mps 623 mmHg 47%
    19:00 +8°C° 0 mm 1 mps 623 mmHg 50%
    20:00 +8°C° 0 mm 1 mps 623 mmHg 51%
    21:00 +8°C° 0 mm 1 mps 622 mmHg 52%
    22:00 +7°C° 0 mm 1 mps 622 mmHg 53%
    23:00 +6°C° 0 mm 2 mps 622 mmHg 53%

    Tomorrow, 23 October, Monday

    Time Temperature Precipitation Wind Pressure Humidity
    00:00 +6°C° 0 mm 2 mps 621 mmHg 54%
    01:00 +6°C° 0 mm 2 mps 621 mmHg 55%
    02:00 +5°C° 0.1 mm 2 mps 620 mmHg 59%
    03:00 +5°C° 0.1 mm 2 mps 620 mmHg 62%
    04:00 +5°C° 0.1 mm 2 mps 619 mmHg 66%
    05:00 +5°C° 0.1 mm 2 mps 619 mmHg 68%
    06:00 +6°C° 0.1 mm 2 mps 619 mmHg 70%
    07:00 +6°C° 0.1 mm 2 mps 619 mmHg 72%
    08:00 +8°C° 0 mm 3 mps 619 mmHg 67%
    09:00 +9°C° 0 mm 3 mps 620 mmHg 61%
    10:00 +11°C° 0 mm 4 mps 620 mmHg 55%
    11:00 +11°C° 0.3 mm 4 mps 620 mmHg 55%
    12:00 +11°C° 0.3 mm 4 mps 619 mmHg 55%
    13:00 +11°C° 0.3 mm 4 mps 619 mmHg 55%
    14:00 +10°C° 1 mm 4 mps 618 mmHg 60%
    15:00 +9°C° 1 mm 3 mps 618 mmHg 65%
    16:00 +8°C° 1 mm 3 mps 617 mmHg 70%
    17:00 +7°C° 1 mm 2 mps 617 mmHg 75%
    18:00 +6°C° 1 mm 2 mps 617 mmHg 79%
    19:00 +5°C° 1 mm 2 mps 617 mmHg 84%
    20:00 +4°C° 0.6 mm 2 mps 616 mmHg 84%
    21:00 +3°C° 0.6 mm 3 mps 616 mmHg 84%
    22:00 +2°C° 0.6 mm 3 mps 616 mmHg 84%
    23:00 +2°C° 0.9 mm 3 mps 616 mmHg 85%

    Day after tomorrow, 24 October, Tuesday

    Time Temperature Precipitation Wind Pressure Humidity
    00:00 0°C° 0.9 mm 4 mps 616 mmHg 85%
    01:00 0°C° 0.9 mm 4 mps 616 mmHg 86%
    02:00 -1°C° 0.6 mm 4 mps 616 mmHg 85%
    03:00 -1°C° 0.6 mm 4 mps 615 mmHg 85%
    04:00 -1°C° 0.6 mm 4 mps 615 mmHg 84%
    05:00 -1°C° 0.1 mm 4 mps 615 mmHg 84%
    06:00 0°C° 0.1 mm 3 mps 616 mmHg 83%
    07:00 0°C° 0.1 mm 3 mps 616 mmHg 82%
    08:00 +1°C° 0.7 mm 3 mps 616 mmHg 81%
    09:00 +1°C° 0.7 mm 3 mps 616 mmHg 81%
    10:00 +1°C° 0.7 mm 3 mps 617 mmHg 80%
    11:00 +1°C° 1.2 mm 3 mps 617 mmHg 81%
    12:00 +1°C° 1.2 mm 3 mps 617 mmHg 82%
    13:00 +1°C° 1.2 mm 3 mps 617 mmHg 82%
    14:00 +1°C° 0.8 mm 3 mps 617 mmHg 83%
    15:00 +1°C° 0.8 mm 3 mps 617 mmHg 83%
    16:00 +1°C° 0.8 mm 3 mps 617 mmHg 84%
    17:00 +1°C° 0.1 mm 3 mps 617 mmHg 86%
    18:00 +1°C° 0.1 mm 2 mps 618 mmHg 87%
    19:00 +1°C° 0.1 mm 2 mps 618 mmHg 89%
    20:00 0°C° 0.6 mm 3 mps 619 mmHg 89%
    21:00 0°C° 0.6 mm 3 mps 619 mmHg 89%
    22:00 +1°C° 0.6 mm 3 mps 620 mmHg 89%
    23:00 +1°C° 1 mm 3 mps 620 mmHg 90%

    25 October, Wednesday

    Time Temperature Precipitation Wind Pressure Humidity
    00:00 +1°C° 1 mm 3 mps 620 mmHg 90%
    01:00 +1°C° 1 mm 3 mps 621 mmHg 91%
    02:00 +1°C° 0.5 mm 3 mps 621 mmHg 90%
    03:00 0°C° 0.5 mm 4 mps 622 mmHg 90%
    04:00 0°C° 0.5 mm 4 mps 622 mmHg 89%
    05:00 0°C° 0.4 mm 4 mps 622 mmHg 88%
    06:00 +1°C° 0.4 mm 3 mps 623 mmHg 87%
    07:00 +1°C° 0.4 mm 3 mps 624 mmHg 86%
    08:00 +1°C° 0.2 mm 4 mps 625 mmHg 83%
    09:00 +1°C° 0.2 mm 4 mps 626 mmHg 79%
    10:00 +3°C° 0.2 mm 4 mps 626 mmHg 76%
    11:00 +3°C° 0.3 mm 4 mps 627 mmHg 75%
    12:00 +3°C° 0.3 mm 4 mps 627 mmHg 73%
    13:00 +3°C° 0.3 mm 4 mps 627 mmHg 72%
    14:00 +3°C° 0.1 mm 4 mps 627 mmHg 72%
    15:00 +3°C° 0.1 mm 3 mps 627 mmHg 73%
    16:00 +3°C° 0.1 mm 3 mps 628 mmHg 73%
    17:00 +2°C° 0 mm 3 mps 628 mmHg 77%
    18:00 +1°C° 0 mm 3 mps 628 mmHg 80%
    19:00 +1°C° 0 mm 2 mps 628 mmHg 84%
    20:00 -1°C° 0 mm 2 mps 628 mmHg 85%
    21:00 -1°C° 0 mm 2 mps 628 mmHg 86%
    22:00 -1°C° 0 mm 2 mps 629 mmHg 87%
    23:00 -2°C° 0 mm 2 mps 628 mmHg 87%

    26 October, Thursday

    Time Temperature Precipitation Wind Pressure Humidity
    00:00 -2°C° 0 mm 2 mps 628 mmHg 87%
    01:00 -2°C° 0 mm 2 mps 628 mmHg 86%
    02:00 0°C° 0 mm 1 mps 628 mmHg 86%
    03:00 0°C° 0 mm 1 mps 628 mmHg 86%
    04:00 0°C° 0 mm 1 mps 628 mmHg 85%
    05:00 0°C° 0 mm 1 mps 629 mmHg 83%
    06:00 +1°C° 0 mm 1 mps 629 mmHg 81%
    07:00 +1°C° 0 mm 1 mps 629 mmHg 79%
    08:00 +3°C° 0 mm 1 mps 630 mmHg 71%
    09:00 +6°C° 0 mm 1 mps 631 mmHg 63%
    10:00 +7°C° 0 mm 2 mps 632 mmHg 55%
    11:00 +8°C° 0 mm 2 mps 631 mmHg 53%
    12:00 +9°C° 0 mm 2 mps 631 mmHg 50%
    13:00 +10°C° 0 mm 2 mps 631 mmHg 47%
    14:00 +9°C° 0 mm 2 mps 631 mmHg 52%
    15:00 +9°C° 0 mm 1 mps 630 mmHg 56%
    16:00 +8°C° 0 mm 1 mps 630 mmHg 61%
    17:00 +7°C° 0 mm 1 mps 630 mmHg 65%
    18:00 +5°C° 0 mm 1 mps 629 mmHg 70%
    19:00 +4°C° 0 mm 1 mps 629 mmHg 75%
    20:00 +4°C° 0 mm 1 mps 629 mmHg 74%
    21:00 +3°C° 0 mm 1 mps 629 mmHg 74%
    22:00 +3°C° 0 mm 1 mps 629 mmHg 73%
    23:00 +3°C° 0 mm 1 mps 628 mmHg 73%

    27 October, Friday

    Time Temperature Precipitation Wind Pressure Humidity
    00:00 +3°C° 0 mm 1 mps 628 mmHg 72%
    01:00 +2°C° 0 mm 1 mps 628 mmHg 71%
    02:00 +2°C° 0 mm 1 mps 628 mmHg 72%
    03:00 +2°C° 0 mm 1 mps 627 mmHg 73%
    04:00 +2°C° 0 mm 1 mps 627 mmHg 74%
    05:00 +2°C° 0 mm 1 mps 627 mmHg 73%
    06:00 +3°C° 0 mm 1 mps 627 mmHg 73%
    07:00 +3°C° 0 mm 1 mps 627 mmHg 72%
    08:00 +6°C° 0 mm 1 mps 628 mmHg 65%
    09:00 +8°C° 0 mm 1 mps 629 mmHg 57%
    10:00 +10°C° 0 mm 1 mps 629 mmHg 50%
    11:00 +11°C° 0 mm 1 mps 629 mmHg 46%
    12:00 +12°C° 0 mm 2 mps 629 mmHg 43%
    13:00 +13°C° 0 mm 2 mps 628 mmHg 40%
    14:00 +12°C° 0 mm 1 mps 627 mmHg 44%
    15:00 +10°C° 0 mm 1 mps 627 mmHg 48%
    16:00 +9°C° 0 mm 1 mps 626 mmHg 52%
    17:00 +8°C° 0 mm 1 mps 625 mmHg 55%
    18:00 +7°C° 0 mm 1 mps 625 mmHg 58%
    19:00 +6°C° 0 mm 1 mps 624 mmHg 62%
    20:00 +5°C° 0 mm 1 mps 624 mmHg 61%
    21:00 +5°C° 0 mm 1 mps 623 mmHg 61%
    22:00 +5°C° 0 mm 1 mps 623 mmHg 61%
    23:00 +5°C° 0 mm 1 mps 623 mmHg 60%
    Show more